Zurück zum Katalog

FENGYUN 1C DEB

AktivSSO
NORAD 30081·DEBRIS·🇨🇳 China

Gestartet May 10, 1999 von Taiyuan Satellite Launch Center

Loading…

Nächste Überflüge (nächste 24 Stunden)

TLE

AktuellSource: Space-Track

Epoche: Sep 14, 2026, 06:06 UTC

1 30081U 99025QJ  26257.25432014  .00000081  00000-0  85353-4 0  9997
2 30081  98.9378 251.2975 0075260 297.8156 133.7249 13.98514158  2014

Verfolge FENGYUN 1C DEB in Echtzeit mit AllMySat

Download on the App Store